Powrót do katalogu

STARLINK-5211

AktywnyŁącznośćVLEO
NORAD 54086·PAYLOAD·🇺🇸 United States

Wystrzelony Oct 20, 2022 z Cape Canaveral Space Force Station

Loading…

Następne Przeloty (najbliższe 24 godziny)

TLE

ŚwieżeSource: CelesTrak SupGP

Epoka: Sep 15, 2026, 03:03 UTC

1 54086C 22136AM  26258.12756944  .00011174  00000+0  33018-3 0  2587
2 54086  53.1600 180.6742 0001528  85.0480 102.6564 15.34381633    11

Śledź STARLINK-5211 w czasie rzeczywistym z AllMySat

Download on the App Store